Location: Crescent
(42.8242°N, 73.7329°W)
Time: 00:58:51
(UTC+00:00)

Tiros 1 - Pass Details

Date: 20 February 2026
Orbit: 618 x 649 km, 48.4° (Epoch: 10 March)

Event Time Altitude Azimuth Distance (km) Brightness Sun altitude
Rises 15:37:13 0° 285° (WNW) 2,906 10.2 32.5°
Reaches altitude 10° 15:39:39 10° 292° (WNW) 1,994 9.4 32.7°
Maximum altitude 15:43:59 41° 3° (N) 905 7.9 33.0°
Drops below altitude 10° 15:48:18 10° 75° (ENE) 1,982 9.8 33.4°
Sets 15:50:43 0° 82° (E) 2,885 10.7 33.5°
